Voltar ao catálogo

AURORA 1

AtivoComunicaçõesPO
NORAD 2876·PAYLOAD·🇺🇸 United States

Lançado Jun 29, 1967 de Vandenberg Space Force Base

Loading…

Próximas Passagens (próximas 24 horas)

TLE

AtualizadoSource: Space-Track

Época: Sep 14, 2026, 14:11 UTC

1 02876U 67065B   26257.59130620  .00000012  00000-0  64271-2 0  9990
2 02876  89.9742 313.2070 0070194  21.4198 338.9554  8.36560232397085

Acompanhe AURORA 1 em tempo real com AllMySat

Download on the App Store